Location: Unspecified
(52.4292°N, 19.3359°E)
Time: 23:17:39
(UTC+02:00)

SR - Pass Details

Date: 03 June 2024
Orbit: 580 x 858 km, 66.7° (Epoch: 12 June)

Event Time Altitude Azimuth Distance (km) Brightness Sun altitude
Rises 22:22:25 0° 321° (NW) 2,902 ? -9.3°
Reaches altitude 10° 22:24:57 10° 332° (NNW) 1,962 ? -9.5°
Maximum altitude 22:28:51 31° 36° (NE) 1,044 ? -9.8°
Drops below altitude 10° 22:32:39 10° 100° (E) 1,900 ? -10.1°
Enters shadow 22:33:44 - 106° (ESE) 2,294 ? -10.1°
Sets 22:35:04 0° 110° (ESE) 2,795 - -10.2°
